SES-4

Last updated on Mon Oct 20 2025 00:02:47 GMT+0000 (Coordinated Universal Time)

1 38087U 12007A 25292.26289720 -.00000170 00000+0 00000+0 0 9999 2 38087 0.0105 58.1176 0002424 161.5994 240.9467 1.00271215 49812
UTC large
Height (km)
Speed (km/s)
/
Latitude / Longitude
Inclination (degrees)
Orbital Period (minutes)
Azimuth
Elevation
Range (km)
Doppler Factor

Next 0 passes for location: London (51.5072 / 0.1276)

Sorry there are no passes over London.